Location: Tauranga
(37.6860°S, 176.1670°E)
Time: 09:30:40
(UTC+13:00)

MOS 1 - Pass Details

Date: 24 January 2019
Orbit: 878 x 892 km, 99.2° (Epoch: 15 October)

Event Time Altitude Azimuth Distance (km) Brightness Sun altitude
Rises 21:05:23 0° 165° (SSE) 3,539 7.6 -6.2°
Reaches altitude 10° 21:07:49 10° 163° (SSE) 2,592 6.9 -6.6°
Maximum altitude 21:13:37 77° 77° (ENE) 927 4.3 -7.6°
Drops below altitude 10° 21:19:19 10° 350° (N) 2,556 6.5 -8.6°
Sets 21:21:42 0° 349° (NNW) 3,487 7.2 -9.0°
